Location: Contre
(49.7477°N, 2.0963°E)
Time: 00:23:25
(UTC+00:00)

Envisat - Pass Details

Date: 07 March 2024
Orbit: 762 x 764 km, 98.3° (Epoch: 12 April)

Event Time Altitude Azimuth Distance (km) Brightness Sun altitude
Rises 04:53:32 0° 4° (N) 3,242 6.4 -15.0°
Reaches altitude 10° 04:56:19 10° 349° (N) 2,311 5.5 -14.5°
Maximum altitude 05:00:04 21° 302° (WNW) 1,664 4.3 -14.0°
Enters shadow 05:01:29 19° 279° (W) 1,771 4.3 -13.7°
